TimeSAST,TemperatureF,Dew PointF,Humidity,Sea Level PressureIn,VisibilityMPH,Wind Direction,Wind SpeedMPH,Gust SpeedMPH,PrecipitationIn,Events,Conditions,WindDirDegrees,DateUTC
12:00 AM,57.2,50.0,77,30.04,6.2,Calm,Calm,-,N/A,,Mostly Cloudy,0,2012-11-22 22:00:00
1:00 AM,57.2,53.6,88,30.01,6.2,Variable,2.3,-,N/A,,Overcast,0,2012-11-22 23:00:00
2:00 AM,57,53,81,29.99,6,West,2.3,,,,,280,2012-11-23 00:00:00
2:00 AM,57.2,53.6,88,29.98,6.2,Variable,1.2,-,N/A,,Overcast,0,2012-11-23 00:00:00
3:00 AM,59.0,51.8,77,29.95,6.2,Calm,Calm,-,N/A,,Overcast,0,2012-11-23 01:00:00
4:00 AM,59.0,51.8,77,29.95,6.2,ESE,3.5,-,N/A,,Overcast,120,2012-11-23 02:00:00
5:00 AM,58,52,74,29.94,12,East,3.5,,,,Mostly Cloudy,90,2012-11-23 03:00:00
5:00 AM,57.2,51.8,82,29.92,6.2,East,3.5,-,N/A,,Mostly Cloudy,90,2012-11-23 03:00:00
6:00 AM,59.0,51.8,77,29.92,6.2,East,3.5,-,N/A,,Mostly Cloudy,80,2012-11-23 04:00:00
7:00 AM,60.8,51.8,72,29.92,6.2,ENE,6.9,-,N/A,,Partly Cloudy,70,2012-11-23 05:00:00
8:00 AM,63,53,62,29.90,19,East,10.4,,,,Clear,90,2012-11-23 06:00:00
8:00 AM,62.6,51.8,68,29.89,-9999.0,East,8.1,-,N/A,,Clear,90,2012-11-23 06:00:00
9:00 AM,66.2,53.6,64,29.86,6.2,SE,8.1,-,N/A,,Partly Cloudy,130,2012-11-23 07:00:00
10:00 AM,66.2,53.6,64,29.86,6.2,SE,9.2,-,N/A,,Partly Cloudy,130,2012-11-23 08:00:00
11:00 AM,69,56,55,29.83,12,ESE,10.4,,,,Scattered Clouds,120,2012-11-23 09:00:00
11:00 AM,66.2,55.4,68,29.83,6.2,ESE,9.2,-,N/A,,Partly Cloudy,120,2012-11-23 09:00:00
12:00 PM,68.0,57.2,68,29.80,6.2,SSE,10.4,-,N/A,,Partly Cloudy,150,2012-11-23 10:00:00
1:00 PM,69.8,57.2,64,29.77,6.2,SE,11.5,-,N/A,,Partly Cloudy,130,2012-11-23 11:00:00
2:00 PM,70,58,57,29.76,12,SE,10.4,,,,Scattered Clouds,130,2012-11-23 12:00:00
2:00 PM,69.8,59.0,68,29.74,6.2,SE,10.4,-,N/A,,Partly Cloudy,130,2012-11-23 12:00:00
3:00 PM,69.8,59.0,68,29.74,6.2,SE,10.4,-,N/A,,Partly Cloudy,130,2012-11-23 13:00:00
4:00 PM,68.0,59.0,73,29.71,6.2,ESE,10.4,-,N/A,,Scattered Clouds,120,2012-11-23 14:00:00
5:00 PM,68,58,64,29.70,12,ESE,8.1,,,,Partly Cloudy,110,2012-11-23 15:00:00
5:00 PM,68.0,59.0,73,29.68,6.2,ESE,8.1,-,N/A,,Scattered Clouds,110,2012-11-23 15:00:00
6:00 PM,68.0,59.0,73,29.68,6.2,ESE,6.9,-,N/A,,Scattered Clouds,120,2012-11-23 16:00:00
7:00 PM,66.2,59.0,78,29.68,6.2,SSE,5.8,-,N/A,,Scattered Clouds,150,2012-11-23 17:00:00
8:00 PM,64,60,84,29.71,12,SSE,5.8,,,,Mostly Cloudy,150,2012-11-23 18:00:00
8:00 PM,64.4,60.8,88,29.68,6.2,SSE,5.8,-,N/A,,Mostly Cloudy,150,2012-11-23 18:00:00
9:00 PM,62.6,59.0,88,29.71,6.2,West,3.5,-,N/A,,Mostly Cloudy,260,2012-11-23 19:00:00
10:00 PM,62.6,59.0,88,29.71,4.3,West,2.3,-,N/A,,Mostly Cloudy,260,2012-11-23 20:00:00
11:00 PM,62.6,60.8,94,29.68,6.2,West,2.3,-,N/A,,Overcast,270,2012-11-23 21:00:00